ONEWEB-0013, 45131

Orbit data source: Space-Track

ONEWEB-0013, 45131 is a payload satellite owned by One Web (UK) in LEO that was launched on Thu, 06 Feb 2020 UTC via a SOYUZ-2-1B launch vehicle from the Tyuratam Missile And Space Complex (TTMTR). Payloads include a variety of satellites, spacecraft, and rockets equipped with specific instruments for various scientific and technological missions. These include communications satellites like Starlink; space stations such as the ISS; scientific satellites like the Hubble; Earth observation satellites from companies like Planet Labs, Umbra, and HawkEye 360; GPS; miniature CubeSats for education and research; and military/defense satellites.

Loading next visibility...
ONEWEB-0013 details
Identifier
45131, 2020-008A
Orbit
LEO
Last TLE update18 hours ago
Origin
Flag of UKOne Web (UK)
ManufacturerOne Web
MissionOperational Commercial Communications
Bus & MotorARROW, Unknown motor
Mass148 kg wet, ~140 kg dry
Launch date (UTC)
2020-02-06 (5 years ago)
Launch vehicle
SOYUZ-2-1B
Launch site
Tyuratam Missile And Space Complex (TTMTR)
Object type
Payload
Rocket body
Debris
Shape & HBRTrap Box + 2 Pan, 5 m
Radar Cross Section2.957 m², Large (>1 m²)

Expand to show TLE details & history

TLE from 18 hours ago
0 ONEWEB-0013
1 45131U 20008A   24360.69300192  .00000084  00000-0  20623-3 0  9997
2 45131  87.8621 161.3056 0001692  60.4618 299.6677 13.09401094236359
Epoch: 2024-12-25T16:37Z
Definitive object data (Epoch: 2024-12-25T16:37:55.365Z)
Latitude-0.00007°
Longitude177.14182°
Altitude1,227.726 km
Speed7.241 km/s
True Right ascension10h 45m 13s
True Declination0° 00' 00"
Sunlit
Object was in daylight at TLE epoch
Visualization TLE readout
Latitude-30.10526°
Longitude-1.77112°
Altitude1,237.859 km
Speed7.234 km/s
Apparent Right ascension22h 17m 11s
Apparent Declination-34° 46' 27"
Sunlit
Object is in daylight
Visualization observer readout
Local Sidereal Time09:33:30
Azimuth297.225° NW
Elevation-79.919°
Doppler factor1
Orbital elements
Apogee altitude1,223.884 km
Perigee altitude1,221.312 km
Semi-major axis7,600.735 km
Eccentricity0.0001692
Inclination87.8621°
RAAN161.3056°
Arg. of periapsis60.4618°
True anomaly299.65085°
Mean anomaly299.6677°
Eccentric anomaly299.65928°
Mean motion3.27537 °/min
BSTAR0.00020623
Orbital period109.91 mins
Loading maneuver chart data...
Loading historical data...
Loading historical data...
Loading historical data...
Loading historical data...
Loading historical data...
Loading historical data...
Loading historical data...

ONEWEB-0013 Visibility forecast

Observer location: undefined°, undefined

Span
Click to sort rows by Start time (UTC) header in descending order
Start Az.
Max El. time (UTC)
Max El. Az.
Max El.
End time (UTC)
End Az.
14 mins2024-12-26 11:03:21.630Z166.499° S2024-12-26 11:10:21.630Z93.223° ESE42.64°2024-12-26 11:17:21.630Z6.661° NNE
9 mins2024-12-26 12:57:21.630Z247.669° W2024-12-26 13:01:21.630Z286.849° WNW20.15°2024-12-26 13:06:21.630Z331.082° NNW
13 mins2024-12-26 22:35:21.630Z11.822° NNE2024-12-26 22:41:21.630Z90.225° ESE39.278°2024-12-26 22:48:21.630Z162.122° S
10 mins2024-12-27 00:26:21.630Z327.924° NNW2024-12-27 00:30:21.630Z288.288° WNW24.072°2024-12-27 00:36:21.630Z231.309° WSW
|